Location: Katwijk
(52.2000°N, 4.4170°E)
Time: 14:27:45
(UTC+02:00)

ISS - Visible Passes

Search period start: 02 October 2014 00:00
Search period end: 12 October 2014 00:00
Orbit: 413 x 416 km, 51.6° (Epoch: 02 October)

Date Brightness Start Highest point End Pass type
(mag) Time Alt. Az. Time Alt. Az. Time Alt. Az.
07 Oct -0.8 20:26:03 10° SSE 20:26:14 10° SSE 20:26:14 10° SSE visible
08 Oct -1.3 21:10:55 10° SSW 21:12:13 19° SSW 21:12:13 19° SSW visible
09 Oct -1.8 20:22:07 10° SSW 20:24:42 21° SE 20:25:10 21° SE visible
09 Oct -0.3 21:57:42 10° WSW 21:58:02 12° WSW 21:58:02 12° WSW visible
10 Oct -1.2 19:33:37 10° S 19:35:34 15° SE 19:37:32 10° ESE visible
10 Oct -2.3 21:08:28 10° SW 21:10:50 38° SSW 21:10:50 38° SSW visible
11 Oct -2.5 20:19:18 10° SW 20:22:25 37° SSE 20:23:32 28° ESE visible
11 Oct -0.5 21:55:34 10° W 21:56:23 16° W 21:56:23 16° W visible
